Погода в Касане

Ботсвана     17°48′38″S   25°09′02″E
темп.,
°C
ветер,
м/с
пор.,
м/с
влажн.,
%
обл.,
%
осадки,
мм/ч
давл.,
гПа
погр.,
м
13 мая, чт
чт1323:00+15вюв25580 0.0 101982
02:00+13в11660 0.0 101814
05:00+12св11720 0.0 101910
08:00+16в24550 0.0 1021184
11:00+25всв24320 0.0 10192075
14:00+29в24232 0.0 10142756
17:00+27вюв34250 0.0 1013365
20:00+19вюв413422 0.0 1017311
14 мая, пт
пт1423:00+15всв26612 0.0 1018104
02:00+14св22630 0.0 101713
05:00+13всв22660 0.0 101713
08:00+17вюв24540 0.0 1019181
11:00+27всв23270 0.0 10172012
14:00+30с13181 0.0 10132750
17:00+28ссз12222 0.0 101283
20:00+18вюв22440 0.0 101615
15 мая, сб
сб1523:00+16в36534 0.0 101791
02:00+15всв24570 0.0 101656
05:00+14ссв12640 0.0 101711
08:00+17ссв12540 0.0 1018134
11:00+28ссв11270 0.0 10161065
14:00+31ю11190 0.0 10122721
17:00+28юв11245 0.0 101121
20:00+20юв11347 0.0 101511
16 мая, вс
вс1623:00+17в22445 0.0 101627
02:00+15зсз115599 0.0 101611
05:00+14вюв115555 0.0 101611
08:00+18всв114439 0.0 1017107
11:00+30ссв1123100 0.0 10151033
14:00+32з0117100 0.0 10122846
17:00+28св1123100 0.0 101111
20:00+20зсз1133100 0.0 101511
17 мая, пн
пн1723:00+17в1138100 0.0 101611
02:00+16юв22405 0.0 101617
05:00+14вюв11440 0.0 101610
08:00+19в11375 0.0 101793
11:00+31всв23170 0.0 10152327
14:00+33в23120 0.0 10123107
17:00+30в23160 0.0 101253
20:00+20вюв39260 0.0 1016125